Trinidad, CO

11:03 PM MDT on March 24, 2017 (GMT -0600)
Stokes

Weather History for KTAD - November, 2012

Change the Weather History Date:

Wednesday, November 21, 2012

  Actual Average Record
Temperature  
Mean Temperature 53 °F 38 °F  
Max Temperature 73 °F 53 °F 75 °F (1989)
Min Temperature 33 °F 23 °F -3 °F (1957)
Degree Days  
Heating Degree Days 12 27  
Month to date heating degree days 380 470  
Since 1 July heating degree days 848 971  
Cooling Degree Days 0 0  
Month to date cooling degree days 0 0  
Year to date cooling degree days 1175 719  
Growing Degree Days 3 (Base 50)    
Moisture  
Dew Point 4 °F    
Average Humidity 22    
Maximum Humidity 38    
Minimum Humidity 5    
Precipitation  
Precipitation 0.00 in 0.02 in 0.21 in (1957)
Month to date precipitation T  
Sea Level Pressure  
Sea Level Pressure 29.93 in    
Wind  
Wind Speed 10 mph (West)    
Max Wind Speed 20 mph    
Max Gust Speed 23 mph    
Visibility 10 miles    
Events      
T = Trace of Precipitation, MM = Missing Value Source: NWS Daily Summary

Daily Weather History Graph

Daily Weather History Graph

Search for Another Location

Airport or City:

Trip Planner

Search our weather history database for the weather conditions in past years. The results will help you decide how hot, cold, wet, or windy it might be!

Date:

Astronomy

Nov. 21, 2012 Rise Set
Actual Time 6:43 AM MST 4:43 PM MST
Civil Twilight 6:15 AM MST 5:11 PM MST
Nautical Twilight 5:43 AM MST 5:43 PM MST
Astronomical Twilight 5:12 AM MST 6:14 PM MST
Moon 12:53 PM MST (11/21) 12:12 AM MST (11/21)
Length of Visible Light 10h 56m
Length of Day
9h 59m
Waxing Gibbous, 62% of the Moon is Illuminated
Nov 21
Waxing Gibbous
Nov 28
Full
Dec 6
Last Quarter
Dec 13
New
Dec 19
First Quarter

Hourly Weather History & Observations

Time (MST) Temp. Windchill Dew Point Humidity Pressure Visibility Wind Dir Wind Speed Gust Speed Precip Events Conditions
12:54 AM 44.1 °F 39.0 °F 10.0 °F 25% 29.99 in 10.0 mi West 9.2 mph - N/A   Clear
1:54 AM 42.1 °F 34.5 °F 10.9 °F 28% 29.99 in 10.0 mi WSW 15.0 mph - N/A   Clear
2:54 AM 41.0 °F 37.1 °F 10.0 °F 28% 29.98 in 10.0 mi West 5.8 mph - N/A   Clear
3:54 AM 36.0 °F 29.0 °F 10.0 °F 34% 30.01 in 10.0 mi NW 9.2 mph - N/A   Clear
4:54 AM 37.9 °F 30.0 °F 10.0 °F 32% 30.03 in 10.0 mi WSW 12.7 mph - N/A   Clear
5:54 AM 34.0 °F 25.5 °F 10.0 °F 37% 30.06 in 10.0 mi West 11.5 mph - N/A   Clear
6:54 AM 35.1 °F 26.9 °F 10.0 °F 35% 30.08 in 10.0 mi WNW 11.5 mph - N/A   Clear
7:54 AM 42.1 °F 34.9 °F 9.0 °F 26% 30.05 in 10.0 mi West 13.8 mph - N/A   Clear
8:54 AM 53.1 °F - 10.0 °F 18% 29.99 in 10.0 mi West 9.2 mph - N/A   Clear
9:54 AM 63.0 °F - 6.1 °F 11% 29.96 in 10.0 mi West 9.2 mph - N/A   Clear
10:49 AM 69.8 °F - 3.2 °F 7% 30.08 in 10.0 mi West 12.7 mph - N/A   Clear
10:54 AM 70.0 °F - 3.0 °F 7% 29.91 in 10.0 mi West 13.8 mph - N/A   Clear
11:54 AM 72.0 °F - 3.0 °F 7% 29.86 in 10.0 mi WNW 5.8 mph - N/A   Clear
12:54 PM 72.0 °F - 1.9 °F 6% 29.84 in 10.0 mi Variable 5.8 mph - N/A   Clear
1:54 PM 72.0 °F - 1.0 °F 6% 29.83 in 10.0 mi ESE 9.2 mph - N/A   Clear
2:54 PM 72.0 °F - -2.9 °F 5% 29.82 in 10.0 mi SE 10.4 mph - N/A   Clear
3:54 PM 69.1 °F - -2.9 °F 6% 29.83 in 10.0 mi SW 4.6 mph - N/A   Clear
4:54 PM 61.0 °F - -2.9 °F 8% 29.86 in 10.0 mi NNW 5.8 mph - N/A   Clear
5:54 PM 55.9 °F - -2.0 °F 9% 29.91 in 10.0 mi NNW 5.8 mph - N/A   Clear
6:54 PM 54.0 °F - 1.0 °F 12% 29.90 in 10.0 mi WSW 12.7 mph - N/A   Clear
7:54 PM 50.0 °F - 1.0 °F 13% 29.90 in 10.0 mi West 15.0 mph - N/A   Clear
8:54 PM 48.9 °F - 1.0 °F 14% 29.88 in 10.0 mi West 13.8 mph - N/A   Clear
9:54 PM 48.9 °F - 1.0 °F 14% 29.83 in 10.0 mi West 15.0 mph - N/A   Clear
10:54 PM 42.1 °F 35.2 °F 1.9 °F 19% 29.82 in 10.0 mi West 12.7 mph - N/A   Clear
11:54 PM 42.1 °F 34.9 °F 3.0 °F 20% 29.81 in 10.0 mi West 13.8 mph - N/A   Clear